Погода Сурское

Погода Сурское : погода сейчас, прогноз погоды и архив. Всё, что Вы хотите узнать о погоде Сурское!

Поиск расширенной информации на нашем сайте:

Полезная информация: Все подробности купить нижнее белье женское недорого у нас.

Другие новости

Новости СМИ2

Главная страница сайта

Новости сайта

02.10.2013

Напоминаем, что на нашем новом сайте вы можете получить высокодетализированные прогнозы погоды по пунктам России, СНГ и мира (включающие важные для авиации метеовеличины, такие как направление и скорость ветра, видимость, явления погоды, количество и форма облачности, нижняя и верхняя граница облачности), а также ознакомиться с разнообразными материалами по авиационной метеорологии и подборкой полезных ссылок на эту тему.

Сайт Метеоцентр.Азия посвящён разработке технологий оптимизации авиаметеорологического обслуживания, включая проектирование и перспективное создание нескольких автоматизированных авиаметеорологических систем:
- система выпуска высокодетальных прогностических карт явлений погоды для нижнего воздушного пространства по России и ближнему зарубежью;
- система верификации прогнозов TAF (выпускаемых синоптиками официальных АМСГ РФ и ближнего зарубежья) и AUTOTAF (выпускаемых сайтом Метеоцентр.Азия) - выявление ошибок, онлайн-сопоставление с фактической погодой METAR, автоматическое внесение коррективов в прогнозы при резком отклонении фактической погоды от прогноза, подсчёт оправдываемости прогнозов по элементам и в целом;
- система обработки, анализа и отображения авиаметеорологической информации для применения провайдерами метеорологической информации.

Рекомендуем: Первые признаки беременности.

Погода Сурское - сегодня

Время (UTC), дата Ветер
(°,м/с) 
Видим.   Явления Облачность Т
(°С)
Тd
(°С)
f(%) Тe
(°С)
Pmin
(гПа)
dP
(гПа)
Po
(мм)
O2
(г/м3)
Тmin Tmax R s Состояние
почвы
12 25.05.17 230 (ЮЗ) 4-13  20000 м    6/6 600 м 
[Cu med, cong]
+25.6 +8.2 33 +26  1013.1  -0.8  751  275           
15 25.05.17 290 (З) 1{12}  20000 м    8/5 600 м кучево-дожд., средняя 
[Cb calv|Ac trans]
+24.5 +7.8 34 +25  1012.4  -0.8  751  276    +26.8       
18 25.05.17 150 (ЮВ) 20000 м    3/0 средняя, верхняя 
[Ac lent|Ci ing]
+18.6 +9.2 54 +20  1013.7  1.1  752  282           
21 25.05.17 тихо ()   20000 м    6/6 600 м 
[Sc]
+16.6 +9.9 65 +18  1013.8  752  284           
00 26.05.17 070 (В) 20000 м    6/6 600 м 
[Sc]
+13.6 +9.5 76 +15  1013.9  752  287           
03 26.05.17 210 (ЮЗ) 20000 м    5/5 600 м 
[Sc]
+16.4 +10 66 +18  1013.8  752  284  +11.7        сухая 
06 26.05.17 210 (ЮЗ) 20000 м    10/4 600 м средняя 
[Cu hum|Ac cuf]
+17.8 +10.4 62 +21  1014  0.2  752  282           
09 26.05.17 190 (Ю) 20000 м    5/3 600 м верхняя 
[Cu med, cong|Ci fib]
+21.6 +10.8 50 +24  1012.8  -0.9  751  278           
12 26.05.17 030 (СВ) 1-11  10 км  гроза, ливневой дождь  10/10 750 м кучево-дожд. 
[Cb cap]
+17.3 +10.3 63 +21  1011.3  -1.7  750  282           
15 26.05.17 170 (Ю) 20000 м  {гроза, ливн. осадки}  8/5 600 м средняя 
[Cu med, cong|Ac cuf]
+20.4 +11.1 55 +23  1009.9  -1.3  749  279    +24.3  0.8     
21 26.05.17 180 (Ю) н/о    н/о 
+14.2 +11.1 82 +18  1008.9  -1  748  284           
00 27.05.17 тихо ()   20000 м    ясно 
+10.3 +8.9 91 +10  1008.2  -0.8  747  289           
03 27.05.17 290 (З) 20000 м    4/0 верхняя 
[Cs]
+14.2 +10.4 78 +17  1007.8  -0.2  747  284  +9.7        влажная 
06 27.05.17 260 (З) 20000 м    5/0 верхняя 
[Ci sp]
+19.8 +10.1 54 +22  1006.6  -1  746  279           
09 27.05.17 250 (З) 20000 м    8/6 600 м верхняя 
[Cu med, cong|Ci fib]
+21.6 +9.3 45 +22  1005.2  -1.3  745  277           
15 27.05.17 330 (СЗ) 4{12}  20000 м  {гроза}  9/5 600 м кучево-дожд., средняя 
[Cb calv|Ac cuf]
+14.1 +8.3 68 +14  1008.2  1.3  747  285    +22     
21 27.05.17 280 (З) 20000 м    3/0 средняя 
[Ac trans]
+5.3 +4.1 92 +6  1011.3  0.5  749  295           
00 28.05.17 тихо ()   20000 м    3/0 средняя 
[Ac lent]
+3.3 +2.6 95 +3  1011.7  0.3  749  298           
03 28.05.17 010 (С) 20000 м    10/10 660 м 
[Sc]
+6.3 +5.5 95 +7  1012.2  0.7  750  294  +3.3      влажная 
06 28.05.17 040 (СВ) 20000 м    10/10 660 м 
[Sc]
+8.2 +3.6 73 +8  1012.4  0.2  750  293           
15 28.05.17 010 (С) 20000 м  {дождь}  8/8 700 м 
[Cu Sc]
+6.5 -1.4 57 +6  1013.7  1.2  751  296    +10.6  0.3     
18 28.05.17 350 (С) 20000 м  {дождь}  ясно 
+3.6 -3.5 60 +3  1016  2.1  753  300           
21 28.05.17 280 (З) 20000 м    ясно 
-0.4 -3 83 -1  1017.8  1.6  754  305           
00 29.05.17 тихо ()   20000 м    ясно 
-2.2 -3.5 91 -2  1018.5  0.6  754  307           
03 29.05.17 160 (Ю) 20000 м    8/0 верхняя 
[Cs]
+1.3 -1.5 82 +2  1018.2  0.1  754  303  -2.9        влажная 
Время (UTC), дата Ветер
(°,м/с) 
Видим.   Явления Облачность Т
(°С)
Тd
(°С)
f(%) Тe
(°С)
Pmin
(гПа)
dP
(гПа)
Po
(мм)
O2
(г/м3)
Тmin Tmax R s Состояние
почвы

Для получения пояснительной информации подведите курсор к названию столбца.

ПОГОДА Сурское - архив

Всё, что Вы хотите узнать о погоде Сурское - удобно и подробно!

Выберите нужную дату (начиная с 1 января 2015* года) и нажмите кнопку "Найти".
Будут отображены архивные сводки погоды по пункту Сурское, начиная с указанной даты.


Отображать данные в формате CSV (для использования в таблицах Excel)


Внимание! Наш архив погоды предназначен исключительно для личного некоммерческого использования в познавательных целях. Если Вам необходимы официальные справки о состоянии погоды (для производственных, юридических, коммерческих и т.п. целей), обращайтесь в органы Росгидромета.

*Примечание: данная дата относится к архиву по метеостанциям СССР (Россия, СНГ, Балтия).
Архив по метеостанциям Зарубежной Европы и Азии (кроме Китая) хранится 10 дней, по другим регионам земного шара (Китай, Африка, Америка, Австралия, Океания) - 1 день.

Сурское - район местоположения метеостанции


Название, широта, долгота, высота метеостанции:
Сурское 54.5°ш. 46.7°д. 100 м над ур. моря [Российская Федерация]

Дополнительная информация

В oтличие oт бoльшинства пoгoдных сайтoв мы публикуем пoдрoбную метеoинфoрмацию в детальнoм прoфессиoнальнoм фoрмате.

Характеристики температуры и влажнoсти вoздуха измеряются на высoте 2 м в тени вдали oт зданий и деревьев.
Скoрoсть ветра измеряется на высoте 10 м (на урoвне рoста челoвека скoрoсть ветра ниже в 1.5-2 раза). Если метеoстанция нахoдится в гoрoде или в лесу, тo скoрoсть ветра занижена на 2-4 м/с пo сравнению с oткрытым местoм. Скoрoсть ветра над акватoриями крупных рек и oзёр, а также на вершинах хoлмoв на 2-5 м/с выше, чем в oбычных услoвиях.
Атмoсфернoе давление в разных тoчках местнoсти мoжет значительнo oтличаться oт давления на метеoстанции, в зависимoсти oт услoвий рельефа (при пoдъёме на 10 м давление пoнижается примернo на 1 мм рт.ст.).